{"data":{"norad_id":55677,"epoch":"2026-09-20T14:16:47.871264Z","epoch_age_seconds":94858,"freshness":"FRESH","line1":"1 55677U 23021BB  26263.59499851  .00000078  00000+0  14312-4 0  9996","line2":"2 55677  70.0011  12.9874 0003211 270.6728  89.4063 14.98333028198976","mean_motion":14.98333028,"eccentricity":0.0003211,"inclination_deg":70.0011,"raan_deg":12.9874,"arg_perigee_deg":270.6728,"mean_anomaly_deg":89.4063,"bstar":1.4312e-5,"rev_number":19897,"period_min":96.106804901854,"perigee_km":569.81482318941,"apogee_km":574.27823105053,"semimajor_km":6950.18352712,"source":"CELESTRAK","updated_at":"2026-09-21T09:00:33.311162Z"}}